Weather History for Dayton, OH

Change the Weather History Date:

Tuesday, June 11, 2013

  Actual Average Record
Temperature  
Mean Temperature 74 °F 70 °F  
Max Temperature 85 °F 79 °F 100 °F (1911)
Min Temperature 62 °F 60 °F 40 °F (1972)
Degree Days  
Heating Degree Days 0 1  
Month to date heating degree days 11 17  
Since 1 June heating degree days 11 17  
Since 1 July heating degree days 5457 5637  
Cooling Degree Days 9 5  
Month to date cooling degree days 38 50  
Year to date cooling degree days 169 120  
Since 1 June cooling degree days 38 50  
Growing Degree Days 23 (Base 50)    
Moisture  
Dew Point 63 °F    
Average Humidity 72    
Maximum Humidity 100    
Minimum Humidity 44    
Precipitation  
Precipitation 0.02 in 0.13 in 2.35 in (2004)
Month to date precipitation 0.54 1.56  
Year to date precipitation 14.84 18.60  
Snow  
Snow 0.00 in 0.00 in 0.00 in ()
Month to date snowfall 0.0 0.0  
Since 1 June snowfall 0.0 0.0  
Since 1 July snowfall 36.3 23.3  
Snow Depth 0.00 in    
Sea Level Pressure  
Sea Level Pressure 29.92 in    
Wind  
Wind Speed 9 mph (West)    
Max Wind Speed 20 mph    
Max Gust Speed 24 mph    
Visibility 9 miles    
Events Rain , Thunderstorm    
T = Trace of Precipitation, MM = Missing Value Source: NWS Daily Summary

Daily Weather History Graph

Daily Weather History Graph

Search for Another Location

Airport:

Trip Planner

Search our weather history database for the weather conditions in past years. The results will help you decide how hot, cold, wet, or windy it might be!

Date:

Astronomy

Jun. 11, 2013 Rise Set
Actual Time 6:07 AM EDT 9:05 PM EDT
Civil Twilight 5:35 AM EDT 9:38 PM EDT
Nautical Twilight 4:53 AM EDT 10:19 PM EDT
Astronomical Twilight 4:06 AM EDT 11:07 PM EDT
Moon 8:50 AM EDT (6/11) 11:08 PM EDT (6/11)
Length of Visible Light 16h 02m
Length of Day
14h 57m
Waxing Crescent, 8% of the Moon is Illuminated
Jun 11
Waxing Crescent
Jun 16
First Quarter
Jun 23
Full
Jun 30
Last Quarter
Jul 8
New

Hourly Weather History & Observations

Time (EDT) Temp. Heat Index Dew Point Humidity Pressure Visibility Wind Dir Wind Speed Gust Speed Precip Events Conditions
12:56 AM 64.9 °F - 62.1 °F 90% 29.86 in 10.0 mi WSW 9.2 mph - N/A   Partly Cloudy
1:56 AM 64.0 °F - 61.0 °F 90% 29.86 in 7.0 mi WSW 8.1 mph - N/A   Clear
2:56 AM 64.0 °F - 62.1 °F 93% 29.85 in 7.0 mi WSW 6.9 mph - N/A   Clear
3:56 AM 64.0 °F - 62.1 °F 93% 29.86 in 7.0 mi West 8.1 mph - N/A   Clear
4:56 AM 64.9 °F - 62.1 °F 90% 29.88 in 7.0 mi West 8.1 mph - N/A   Clear
5:56 AM 63.0 °F - 62.1 °F 97% 29.90 in 5.0 mi West 8.1 mph - N/A   Clear
6:56 AM 64.0 °F - 62.1 °F 93% 29.92 in 4.0 mi WNW 5.8 mph - N/A   Mostly Cloudy
7:56 AM 66.9 °F - 63.0 °F 87% 29.94 in 6.0 mi WNW 9.2 mph - N/A   Clear
8:56 AM 70.0 °F - 63.0 °F 78% 29.95 in 8.0 mi NW 6.9 mph - N/A   Clear
9:56 AM 73.0 °F - 63.0 °F 71% 29.95 in 9.0 mi NW 8.1 mph - N/A   Clear
10:56 AM 75.9 °F - 64.9 °F 69% 29.96 in 9.0 mi WNW 11.5 mph - N/A   Partly Cloudy
11:56 AM 78.1 °F - 64.0 °F 62% 29.97 in 8.0 mi WNW 10.4 mph - N/A   Scattered Clouds
12:56 PM 80.1 °F 81.9 °F 64.9 °F 60% 29.96 in 9.0 mi WNW 6.9 mph - N/A   Scattered Clouds
1:56 PM 80.1 °F 81.7 °F 64.0 °F 58% 29.95 in 9.0 mi West 9.2 mph 16.1 mph N/A   Mostly Cloudy
2:56 PM 82.9 °F 84.4 °F 64.0 °F 53% 29.94 in 10.0 mi West 9.2 mph - N/A   Scattered Clouds
3:56 PM 84.9 °F 85.0 °F 61.0 °F 44% 29.93 in 10.0 mi West 8.1 mph - N/A   Partly Cloudy
4:56 PM 84.0 °F 84.4 °F 61.0 °F 46% 29.92 in 10.0 mi SW 10.4 mph - N/A   Partly Cloudy
5:56 PM 84.0 °F 84.0 °F 60.1 °F 44% 29.90 in 10.0 mi WSW 13.8 mph - N/A   Scattered Clouds
6:56 PM 81.0 °F 81.9 °F 62.1 °F 52% 29.91 in 10.0 mi SW 13.8 mph - N/A   Mostly Cloudy
7:30 PM 80.6 °F 81.8 °F 62.6 °F 54% 29.94 in 10.0 mi SW 15.0 mph - N/A Thunderstorm Thunderstorm
7:51 PM 80.6 °F 81.8 °F 62.6 °F 54% 29.93 in 10.0 mi SW 10.4 mph - N/A   Mostly Cloudy
7:56 PM 79.0 °F - 63.0 °F 58% 29.91 in 10.0 mi SSW 9.2 mph - 0.00 in Rain Light Rain
8:44 PM 75.2 °F - 66.2 °F 73% 29.96 in 10.0 mi West 12.7 mph - 0.01 in   Mostly Cloudy
8:56 PM 73.9 °F - 66.0 °F 76% 29.94 in 10.0 mi West 17.3 mph 24.2 mph 0.01 in Rain Light Rain
9:16 PM 73.4 °F - 66.2 °F 78% 29.86 in 10.0 mi South 15.0 mph - 0.01 in Rain Light Rain
9:56 PM 73.0 °F - 64.9 °F 76% 29.88 in 10.0 mi WSW 10.4 mph - 0.01 in   Mostly Cloudy
10:56 PM 73.9 °F - 64.9 °F 73% 29.91 in 10.0 mi WSW 8.1 mph - N/A   Overcast
11:56 PM 73.0 °F - 64.9 °F 76% 29.90 in 10.0 mi SW 6.9 mph - N/A   Mostly Cloudy